Location: Pradons
(44.4746°N, 4.3578°E)
Time: 01:25:49
(UTC+00:00)

Cosmos 1023 Rocket - Pass Details

Date: 09 April 2020
Orbit: 736 x 772 km, 74.1° (Epoch: 05 June)

Event Time Altitude Azimuth Distance (km) Brightness Sun altitude
Rises 19:20:31 0° 193° (SSW) 3,199 7.6 -11.1°
Reaches altitude 10° 19:22:54 10° 191° (S) 2,272 6.8 -11.4°
Maximum altitude 19:28:01 72° 108° (ESE) 790 4.4 -12.3°
Drops below altitude 10° 19:33:07 10° 25° (NNE) 2,266 7.0 -13.1°
Sets 19:35:29 0° 23° (NNE) 3,190 7.7 -13.5°
